SCP
0 0 0 0 0 0 0 0 0 0 0 0 0 0 0 0 0 0 0 0 0 0 0 0 0 0 0 0 0 0 0 0 0 0 0 0 0 0 0 0 0 0 0
0 0 0 0 0 0 0 0 0 0 0 0 0 0 0 0 0 0 0 0 0 0 0 0 0 0 0 0 0 0 0 0 0 0 0 0 0 0 0 0 0 0 0
0 0 0 0 0 0 0 0 0 0 0 0 0 0 0 0 0 0 0 0 0 0 0 0 0 0 0 0 0 0 0 0 0 0 0 0 0 0 0 0 0 0 0
0 0 0 0 0 0 0 0 0 0 0 0 0 0 0 0 0 0 0 0 0 0 0 0 0 0 0 0 0 0 0 0 0 0 0 0 0 0 0 0 0 0 0
0 0 0 0 0 0 0 0 0 0 0 0 0 0 0 0 0 0 0 0 0 0 0 0 0 0 0 0 0 0 0 0 0 0 0 0 0 0 0 0 0 0 0
0 0 0 0 0 0 0 0 0 0 0 0 0 0 0 0 0 0 0 0 0 0 0 0 0 0 0 0 0 0 0 0 0 0 0 0 0 0 0 0 0 0 0
0 0 0 0 0 0 0 0 0 0 0 0 0 0 0 0 0 0 0 0 0 0 0 0 0 0 0 0 0 0 0 0 0 0 0 0 0 0 0 0 0 0 0
0 0 0 0 0 0 0 0 0 0 0 0 0 0 0 0 0 0 0 0 0 0 0 0 0 0 0 0 0 0 0 0 0 0 0 0 0 0 0 0 0 0 0
0 0 0 0 0 0 0 0 0 0 0 0 0 0 0 0 0 0 0 0 0 0 0 0 0 0 0 0 0 0 0 0 0 0 0 0 0 0 0 0 0 0 0
0 0 0 0 0 0 0 0 0 0 0 0 0 0 0 0 0 0 0 0 0 0 0 0 0 0 0 0 0 0 0 0 0 0 0 0 0 0 0 0 0 0 0
0 0 0 0 0 0 0 0 0 0 0 0 0 0 0 0 0 0 0 0 0 0 0 0 0 0 0 0 0 0 0 0 0 0 0 0 0 0 0 0 0 0 0
0 0 0 0 0 0 0 0 0 0 0 0 0 0 0 0 0 0 0 0 0 0 0 0 0 0 0 0 0 0 0 0 0 0 0 0 0 0 0 0 0 0 0
0 0 0 0 0 0 0 0 0 0 0 0 0 0 0 0 0 0 0 0 0 0 0 0 0 0 0 0 0 0 0 0 0 0 0 0 0 0 0 0 0 0 0
0 0 0 0 0 0 0 0 0 0 0 0 0 0 0 0 0 0 0 0 0 0 0 0 0 0 0 0 0 0 0 0 0 0 0 0 0 0 0 0 0 0 0
0 0 0 0 0 0 0 0 0 0 0 0 0 0 0 0 0 0 0 0 0 0 0 0 0 0 0 0 0 0 0 0 0 0 0 0 0 0 0 0 0 0 0
0 0 0 0 0 0 0 0 0 0 0 0 0 0 0 0 0 0 0 0 0 0 0 0 0 0 0 0 0 0 0 0 0 0 0 0 0 0 0 0 0 0 0
0 0 0 0 0 0 0 0 0 0 0 0 0 0 0 0 0 0 0 0 0 0 0 0 0 0 0 0 0 0 0 0 0 0 0 0 0 0 0 0 0 0 0
0 0 0 0 0 0 0 0 0 0 0 0 0 0 0 0 0 0 0 0 0 0 0 0 0 0 0 0 0 0 0 0 0 0 0 0 0 0 0 0 0 0 0
0 0 0 0 0 0 0 0 0 0 0 0 0 0 0 0 0 0 0 0 0 0 0 0 0 0 0 0 0 0 0 0 0 0 0 0 0 0 0 0 0 0 0
0 0 0 0 0 0 0 0 0 0 0 0 0 0 0 0 0 0 0 0 0 0 0 0 0 0 0 0 0 0 0 0 0 0 0 0 0 0 0 0 0 0 0
0 0 0 0 0 0 0 0 0 0 0 0 0 0 0 0 0 0 0 0 0 0 0 0 0 0 0 0 0 0 0 0 0 0 0 0 0 0 0 0 0 0 0
0 0 0 0 0 0 0 0 0 0 0 0 0 0 0 0 0 0 0 0 0 0 0 0 0 0 0 0 0 0 0 0 0 0 0 0 0 0 0 0 0 0 0
0 0 0 0 0 0 0 0 0 0 0 0 0 0 0 0 0 0 0 0 0 0 0 0 0 0 0 0 0 0 0 0 0 0 0 0 0 0 0 0 0 0 0
0 0 0 0 0 0 0 0 0 0 0 0 0 0 0 0 0 0 0 0 0 0 0 0 0 0 0 0 0 0 0 0 0 0 0 0 0 0 0 0 0 0 0
0 0 0 0 0 0 0 0 0 0 0 0 0 0 0 0 0 0 0 0 0 0 0 0 -0 -0 -0 -0 0 0 0 0 0 0 0 0 0 0 0 0 0 0 0
0 0 0 0 0 0 0 0 0 0 0 0 0 0 0 0 0 0 0 0 0 0 0 0 -0 -0 -0 -0 0 0 0 0 0 0 0 0 0 0 0 0 0 0 0
Wind_Speed
5 5 5 5 5 5 5 6 6 7 7 7 8 8 8 9 9 9 11 11 13 14 13 14 16 14 13 11 11 12 13 12 18 13 6 7 11 11 11 10 10 12 12
5 5 6 6 6 6 7 7 7 8 8 8 8 9 9 10 9 10 12 12 13 14 14 14 16 13 16 13 12 14 14 14 16 20 8 7 11 10 10 10 10 11 10
5 5 6 7 7 7 8 8 8 8 9 8 8 9 10 10 10 10 11 12 12 13 13 14 15 14 15 13 14 14 12 13 14 16 13 6 7 7 8 9 11 9 10
5 6 7 7 8 8 9 9 9 9 9 10 10 10 11 11 11 11 11 12 12 12 12 13 13 14 15 14 13 14 12 13 12 14 13 8 7 5 7 8 9 8 10
6 7 8 8 8 8 9 9 10 9 10 10 11 11 11 9 10 11 11 12 12 13 12 13 14 17 21 17 13 11 12 12 12 13 13 10 9 7 8 7 11 8 9
6 8 8 8 9 9 10 10 10 11 10 10 11 12 12 11 19 25 19 11 11 12 12 12 13 16 20 26 27 25 20 16 15 14 13 14 12 11 9 9 9 8 8
7 9 9 9 9 10 11 11 11 11 10 11 11 11 13 15 25 26 26 17 11 10 11 10 10 11 17 12 19 25 24 27 25 17 17 16 12 11 11 12 11 10 11
8 9 9 9 10 11 11 12 12 11 11 11 12 12 14 16 25 27 26 16 11 10 10 11 11 11 11 13 11 12 13 14 16 13 12 12 11 10 12 13 12 11 8
9 10 10 10 11 12 13 13 12 12 12 11 12 12 14 16 24 26 26 11 9 11 10 11 12 11 18 22 14 12 13 12 18 23 21 18 20 21 16 10 10 9 9
10 11 10 10 11 13 14 14 12 11 13 13 13 12 14 15 21 26 25 9 10 10 9 10 17 17 19 21 13 11 13 11 9 9 12 14 13 15 21 14 11 10 6
11 11 11 10 11 13 13 12 12 13 13 13 14 13 12 15 20 24 24 11 9 10 9 7 8 18 21 21 18 11 14 12 8 9 8 7 6 6 7 8 9 9 9
10 11 11 11 10 11 12 13 12 12 14 13 13 13 10 11 16 19 24 22 20 11 9 8 9 19 20 21 15 14 18 15 6 6 7 7 7 7 6 7 8 9 9
11 12 12 12 10 10 11 13 12 10 10 11 11 12 11 8 11 21 24 24 24 14 9 16 18 20 19 13 14 17 13 6 5 6 7 7 7 6 5 5 6 6 8
12 12 11 11 12 10 8 9 10 11 11 11 12 12 12 10 9 8 9 11 15 13 11 14 19 18 13 12 11 8 4 4 5 6 6 5 5 5 6 6 6 5 5
12 12 11 10 11 11 9 9 12 10 13 16 13 12 13 13 14 23 18 11 9 10 11 6 5 5 5 5 4 4 4 4 5 4 4 4 5 6 6 5 5 5 5
11 11 9 9 10 10 11 12 16 18 24 26 25 22 16 20 27 27 26 25 24 22 13 5 6 6 6 5 5 4 4 5 4 4 4 4 5 5 5 4 4 5 6
11 12 10 9 10 10 11 12 14 15 19 22 24 24 23 25 26 25 24 23 21 18 8 5 6 6 5 5 4 4 4 4 4 4 4 4 4 4 4 5 5 5 6
10 13 13 9 10 10 11 11 12 14 14 11 14 21 24 24 23 23 22 17 10 8 5 6 6 5 4 4 4 4 4 3 3 3 4 4 4 4 4 5 5 6 6
10 9 9 9 10 10 11 11 11 13 12 12 11 13 19 20 21 20 17 7 8 7 6 5 5 4 4 4 4 3 3 3 3 3 3 4 4 4 4 5 5 9 8
8 16 17 11 10 10 10 11 11 11 11 11 11 11 11 12 9 9 7 6 6 6 6 5 5 4 3 3 3 3 3 3 3 3 3 3 3 4 5 5 5 5 6
8 11 18 13 10 10 11 11 11 11 11 11 11 13 19 12 9 9 8 7 6 6 6 5 4 4 3 3 3 3 3 3 3 3 3 3 4 4 4 5 5 6 6
8 9 9 10 10 10 11 10 10 11 11 12 11 11 19 10 8 8 7 7 6 5 5 5 4 3 3 3 3 3 3 3 3 3 3 3 4 4 4 5 5 6 7
8 10 10 9 10 15 13 10 10 10 11 11 10 10 9 8 8 7 7 6 5 5 4 4 3 3 2 2 2 3 3 4 4 4 4 4 4 4 5 6 7 7 8
8 9 10 10 10 10 10 10 10 10 11 10 10 9 9 8 8 8 7 6 5 5 4 3 3 3 3 2 2 2 3 3 3 3 5 5 5 5 5 6 7 9 9
7 8 9 9 10 10 10 11 10 10 10 10 10 9 8 8 8 7 6 5 5 4 4 3 2 2 3 3 3 3 5 6 6 4 4 4 5 6 6 7 8 8 9
7 8 9 9 9 10 10 10 11 11 10 10 9 8 8 8 7 6 5 4 4 4 3 3 3 3 3 2 3 5 6 7 7 8 4 4 5 6 6 7 9 9 10
Wind_Direction
326 324 322 316 314 310 299 291 288 287 287 282 278 274 269 265 259 253 251 249 248 248 243 240 240 235 235 232 229 229 230 230 252 258 206 202 205 218 229 227 223 231 239
316 318 314 311 312 309 300 295 292 288 286 281 279 276 272 269 263 257 259 255 251 250 247 244 244 239 237 234 231 231 231 228 239 258 243 207 215 216 221 226 227 228 227
316 316 313 310 308 303 298 296 294 288 286 284 279 275 273 271 268 263 259 259 255 253 250 246 246 240 242 237 233 233 232 232 233 248 253 218 218 214 220 229 232 232 228
314 312 306 302 300 296 294 293 290 287 286 284 280 276 273 271 268 267 263 261 259 256 252 248 247 241 242 239 237 236 232 233 234 241 250 236 220 199 207 221 232 227 233
311 307 298 294 293 292 291 290 288 285 283 281 282 281 277 273 270 267 262 259 257 257 254 248 247 247 246 245 240 236 230 232 233 238 245 241 226 204 212 212 230 228 229
303 297 294 295 295 293 291 291 290 288 285 283 281 282 282 280 286 289 286 268 258 256 257 253 249 256 258 258 255 247 232 227 229 232 238 238 232 220 215 216 222 225 234
297 294 295 294 293 292 293 294 292 291 287 286 283 281 282 284 291 292 291 286 272 264 260 259 258 253 259 250 256 260 256 247 235 226 234 235 230 217 214 219 217 218 225
295 293 293 293 293 294 294 293 292 290 289 287 287 285 285 287 294 296 296 291 278 270 263 260 259 257 252 253 245 246 248 253 253 245 237 234 228 219 213 217 220 227 232
295 293 293 294 296 297 296 294 294 294 293 289 287 286 287 291 295 298 297 285 277 272 266 260 260 257 262 266 258 248 248 248 255 253 249 243 234 229 217 213 214 219 227
295 294 294 292 293 295 295 296 295 293 293 293 290 287 286 288 292 297 297 286 280 278 270 262 267 268 267 267 258 250 253 248 237 246 251 255 248 238 232 215 207 214 215
292 294 293 291 291 292 293 294 295 295 295 293 292 290 285 286 292 295 297 292 279 279 278 273 265 275 277 274 268 254 254 252 231 230 231 233 231 228 229 222 208 211 216
294 295 295 293 292 297 296 297 295 295 296 296 296 295 288 286 290 293 295 295 294 288 283 278 271 278 277 274 272 265 266 264 235 222 225 221 219 219 217 214 215 216 219
298 297 297 297 293 290 292 296 299 296 295 297 297 296 295 287 286 294 297 297 297 293 280 282 284 285 286 280 274 275 276 263 233 230 226 221 214 210 202 203 209 215 223
298 300 300 301 301 296 288 289 294 297 296 296 296 296 296 295 291 289 286 290 292 291 287 285 287 287 283 279 274 273 265 253 247 238 229 217 200 195 201 200 204 204 218
298 298 300 297 298 301 296 290 294 287 289 296 296 296 300 300 297 301 303 298 291 284 290 275 269 269 260 256 250 247 242 249 251 235 222 211 203 203 206 200 199 197 207
300 301 300 300 299 299 301 301 296 296 300 300 300 300 299 298 303 306 308 307 307 306 303 288 281 272 263 254 249 247 238 236 232 223 216 209 209 207 203 194 194 202 218
290 296 298 297 298 300 302 304 306 305 302 302 302 304 305 306 307 309 310 310 310 311 301 286 281 275 265 252 245 242 242 232 219 217 217 212 206 204 201 203 204 212 225
286 293 297 295 295 296 298 300 302 304 307 305 304 306 308 308 309 311 313 315 307 303 281 279 278 273 262 252 246 243 239 228 219 218 216 210 204 203 207 210 211 216 227
291 291 292 291 293 295 297 298 297 297 298 301 303 306 309 311 309 309 313 303 296 295 290 285 279 271 262 255 250 243 232 227 221 213 214 210 205 205 217 219 221 234 238
288 298 305 302 298 299 298 298 298 298 299 300 302 304 307 306 304 308 308 298 294 292 290 287 282 272 263 256 249 241 228 221 215 215 216 213 210 212 221 225 227 236 241
291 296 302 303 296 296 297 298 298 299 300 300 299 300 306 308 307 306 304 300 296 296 294 289 284 278 264 250 239 230 224 223 219 219 221 221 216 222 226 230 236 241 249
288 291 293 295 297 299 300 299 300 299 299 299 299 302 309 309 304 302 301 299 296 294 292 288 284 275 260 246 232 223 223 227 225 222 227 227 227 232 236 240 245 250 253
287 292 295 297 298 301 304 300 299 298 299 299 301 304 306 305 304 302 301 300 298 297 295 292 288 283 272 246 227 218 224 232 229 219 223 231 234 239 243 249 252 257 259
288 294 299 300 301 299 300 300 299 299 300 301 302 302 303 303 302 301 300 299 299 298 297 293 283 277 276 266 245 235 235 239 229 223 222 231 242 251 254 258 260 261 264
293 297 300 299 300 300 300 300 301 301 301 302 303 304 305 304 303 301 301 302 304 304 306 304 293 283 273 266 261 258 261 260 253 245 234 240 249 254 260 264 267 270 270
296 298 298 298 298 299 300 301 301 302 302 303 303 301 302 302 302 301 301 300 301 303 305 304 296 290 284 277 270 274 279 278 274 272 266 253 257 265 269 273 274 276 276